Tracking 18624 objects as of 26-April-2017
HD Live streaming from Space Station
objects crossing your sky now

USA 8

Track USA 8 now!
USA 8 is classified as:


NORAD ID: 15543
Int'l Code: 1985-010B
Perigee: 35,347.4 km
Apogee: 36,500.5 km
Inclination: 17.6 °
Period: 1,442.8 minutes
Semi major axis: 42294 km
RCS: Unknown
Launch date: January 24, 1985
Source: United States (US)
Launch site: AIR FORCE EASTERN TEST RANGE (AFETR)
Your satellite tracking list
Your tracking list is empty





NASA's NSSDC Master Catalog

Two Line Element Set (TLE):
1 15543U 85010B   17084.40745571 0.00000000  00000-0  00000-0 0    08
2 15543  17.6053 349.8218 0136325 314.5898  44.3176  0.99809128    06
Source of the keplerian elements: McCants